RH
50 48 45 48 51 52 54 54 52 47 48 50 48 45 42 42 43 43 40 36 32 30 30 29 32 34 33 31 30 29 28 28 29 29 28 33 33 32 32 31 30 26 25
46 47 48 47 46 46 47 48 48 50 51 51 50 48 45 45 46 44 42 40 37 36 36 35 34 34 34 32 31 32 32 30 29 30 32 32 31 34 36 38 36 33 33
47 48 47 44 44 45 45 45 45 45 44 44 47 51 51 51 49 47 45 44 43 40 38 38 37 38 39 39 37 35 34 35 34 33 32 31 32 32 36 37 38 37 36
41 43 47 54 55 49 46 46 46 45 44 43 43 42 42 43 45 47 49 49 47 43 42 42 42 41 40 41 42 40 38 36 36 36 36 37 37 36 36 38 39 42 42
49 43 41 43 43 44 44 44 45 46 48 48 46 44 42 40 40 41 41 40 43 47 47 46 45 44 44 43 42 42 41 39 39 36 36 37 39 39 39 39 42 45 46
49 48 46 41 38 38 40 41 40 40 41 41 42 44 45 42 38 37 39 41 41 41 40 42 44 46 47 46 45 45 44 43 41 39 38 36 35 37 37 39 41 43 45
57 53 48 48 47 44 40 39 39 40 41 41 40 41 43 43 42 42 41 42 43 42 41 41 40 40 42 44 46 46 45 44 44 42 41 40 40 37 36 39 41 42 46
56 57 58 58 56 54 52 51 47 44 40 38 38 39 41 42 43 42 42 43 43 44 44 46 46 46 44 42 41 41 42 41 41 41 41 40 41 43 45 46 48 47 48
45 45 45 46 47 49 51 53 53 52 51 51 51 51 50 48 45 44 43 44 44 43 41 41 41 42 43 42 41 41 41 40 39 39 40 41 41 45 49 50 51 49 49
41 42 43 44 44 44 44 46 47 47 46 46 44 44 43 43 44 46 49 52 53 53 52 52 49 47 46 44 43 43 44 44 46 46 45 46 48 48 48 50 53 52 54
58 55 53 52 52 51 49 46 42 41 42 43 43 41 38 38 37 38 39 41 42 44 47 50 52 52 55 56 57 56 54 53 50 48 46 46 49 51 51 54 55 56 59
58 58 58 58 58 59 60 62 66 67 64 60 61 63 59 55 50 47 42 40 39 38 37 36 36 37 39 42 46 50 55 61 63 62 62 63 61 60 59 60 59 62 63
62 60 59 59 59 58 58 59 60 64 69 71 71 70 70 70 74 76 75 66 59 51 46 46 45 43 40 38 37 36 36 38 42 46 52 61 65 67 67 66 64 66 65
57 55 54 54 53 52 51 50 51 51 52 53 56 60 62 63 64 64 63 63 63 63 64 62 59 57 56 53 53 50 47 45 43 43 43 44 45 47 50 54 57 59 60
47 44 45 45 44 45 47 46 46 46 46 48 50 54 55 54 54 52 54 54 53 53 52 52 53 52 51 53 54 55 56 57 59 60 61 60 59 57 53 48 46 47 48
59 58 55 52 51 51 51 49 46 43 40 37 34 31 29 30 32 34 39 45 46 44 43 42 40 39 41 42 45 46 48 52 56 60 66 70 70 68 65 66 65 64 63
41 35 27 22 20 21 21 20 18 17 16 16 16 16 15 15 15 15 16 17 21 26 31 35 37 38 36 33 31 32 36 41 41 44 51 52 53 55 60 64 64 64 65
22 20 18 16 15 16 16 16 16 15 15 14 14 13 13 12 12 12 12 12 12 12 12 14 19 24 31 34 32 27 29 35 38 39 44 46 49 51 49 50 51 56 57
17 17 17 16 17 18 18 18 17 15 14 13 12 12 11 11 12 11 11 12 13 12 12 12 12 12 13 15 18 19 20 22 29 35 42 44 44 45 48 53 52 51 51
22 22 20 18 16 15 14 13 12 11 11 11 10 10 10 10 10 10 10 10 10 11 11 11 11 12 14 13 14 13 15 20 22 23 24 30 40 46 51 50 50 58 60
16 13 13 12 11 10 9 9 8 8 8 7 7 7 7 7 7 7 7 7 7 7 8 10 11 11 12 13 14 15 14 15 18 22 20 22 26 34 39 46 51 59 62
10 10 10 9 8 8 8 8 8 7 7 7 7 7 6 6 6 6 6 6 6 6 6 7 8 8 8 10 12 14 14 15 16 18 18 18 21 24 29 30 32 41 51
10 9 9 9 8 7 7 7 7 7 6 6 6 6 5 5 5 5 6 6 6 6 7 7 6 7 8 8 9 9 10 11 13 14 17 18 18 21 23 25 26 30 39
9 8 8 8 7 7 6 6 6 7 7 7 7 7 7 6 6 6 6 5 5 5 6 6 7 7 7 7 8 8 9 9 9 10 12 14 16 17 20 21 23 23 23
8 9 9 10 10 10 9 8 8 8 8 8 8 8 8 8 8 8 8 8 7 6 5 5 5 6 7 7 7 8 8 8 8 9 10 11 12 13 15 16 19 20 21
10 9 9 8 8 8 7 7 7 6 7 7 7 7 7 8 8 8 7 7 8 8 8 8 6 5 6 6 7 7 7 8 8 8 8 8 10 11 12 13 14 15 16
Wind_Speed
52 52 53 53 52 52 52 52 51 51 50 49 49 50 50 50 50 50 50 51 49 48 46 45 45 46 46 45 43 41 41 41 41 40 41 42 43 42 42 41 41 40 40
59 59 59 59 59 59 59 58 58 57 56 56 55 55 54 54 55 56 57 56 55 54 53 53 53 54 53 52 50 48 47 47 47 46 45 47 46 47 47 47 47 47 47
63 64 64 65 65 65 65 66 65 64 64 62 61 61 61 61 61 61 61 61 61 61 61 60 59 59 58 58 56 55 54 53 52 52 52 51 52 51 52 53 53 53 53
69 69 70 69 69 70 71 71 71 70 70 70 69 69 69 68 68 68 68 68 68 68 67 67 66 65 65 65 63 62 61 60 59 58 58 57 57 57 57 58 58 59 59
74 75 75 75 75 76 76 76 77 77 76 76 76 76 76 76 75 74 75 75 75 75 74 74 73 73 73 72 72 71 70 68 66 66 65 64 64 63 64 63 64 65 65
81 81 81 82 83 83 83 83 83 83 83 82 82 82 82 82 82 82 82 82 82 82 81 80 80 80 80 80 79 78 77 76 75 74 74 72 71 71 70 70 70 71 71
85 86 87 87 88 89 90 90 91 91 90 90 90 90 89 89 88 88 88 89 89 88 87 87 87 87 86 86 85 85 85 84 82 81 80 79 78 77 77 77 76 76 76
91 92 92 92 93 94 94 95 96 97 98 99 98 98 97 96 95 95 95 95 95 95 94 93 92 92 92 92 93 92 92 91 89 88 87 87 85 84 83 82 82 81 81
96 97 97 97 98 98 99 100 101 102 102 103 104 104 104 103 103 103 102 102 102 102 102 101 100 99 98 98 98 98 98 98 97 97 95 93 92 91 89 89 89 88 88
92 94 96 98 99 101 103 105 106 108 109 110 111 112 112 111 110 109 108 107 107 108 108 107 107 107 106 106 105 105 104 104 103 102 101 100 98 97 96 96 95 95 93
97 98 99 100 101 102 103 104 105 106 107 109 110 112 113 114 115 116 117 117 116 115 116 114 113 113 112 111 111 111 111 110 110 109 108 107 107 105 104 103 101 100 100
104 105 106 107 108 109 110 110 111 112 113 114 115 115 116 117 118 118 117 116 116 116 118 119 119 120 120 120 119 118 117 116 116 115 115 114 113 111 111 110 108 107 107
105 106 108 109 110 111 112 113 114 115 116 117 119 121 122 123 123 122 122 122 122 121 121 120 119 119 119 119 119 119 119 120 121 122 122 121 120 119 117 115 113 113 113
109 110 111 112 113 114 115 116 117 119 121 123 124 126 127 128 130 130 130 128 127 127 126 126 126 124 125 125 124 122 121 120 119 119 119 120 121 122 123 123 121 121 121
115 116 118 119 121 122 124 126 127 129 131 133 135 137 138 140 140 139 140 140 139 137 136 134 133 131 130 130 129 128 127 126 125 125 123 122 121 120 120 118 117 116 115
128 129 131 133 134 135 137 138 140 140 141 142 142 143 144 146 147 148 149 149 149 149 147 145 143 141 139 138 136 135 134 132 131 129 128 127 126 125 124 124 122 120 119
135 134 132 132 131 131 132 134 135 136 137 139 141 142 143 144 145 147 148 149 150 152 153 152 152 152 151 150 147 144 142 141 141 136 135 135 133 131 130 130 129 126 125
129 130 130 132 132 132 132 133 134 135 136 138 140 143 144 146 148 149 150 151 152 151 151 151 152 153 154 154 153 150 147 146 147 144 143 141 139 139 137 137 135 133 131
128 128 129 130 130 130 131 132 133 133 134 135 136 137 138 139 141 143 145 147 150 153 153 152 152 154 154 154 154 153 150 148 149 147 146 145 145 144 143 142 141 139 137
126 125 125 125 125 125 124 124 124 124 124 124 125 126 127 128 130 131 132 134 135 138 142 145 148 150 152 154 154 154 152 151 150 149 147 146 145 146 146 146 145 143 141
121 119 118 118 117 116 115 115 115 115 115 116 117 117 118 118 120 122 124 127 128 129 132 135 138 140 142 147 151 153 153 153 153 152 152 148 147 146 146 146 145 145 144
113 111 111 111 111 109 108 108 109 109 107 107 106 106 106 106 107 109 112 113 116 118 122 125 129 134 136 138 142 143 146 146 148 149 152 151 151 151 150 150 146 144 144
106 106 105 105 106 104 102 100 99 99 98 99 99 98 98 99 100 100 102 104 106 107 109 112 116 121 124 128 134 139 141 142 142 141 143 145 147 150 151 151 150 146 146
98 97 97 96 96 96 96 95 93 92 93 94 95 95 95 95 94 95 96 97 98 101 103 106 108 109 112 116 121 125 129 134 136 138 138 139 139 140 143 147 149 149 147
90 90 91 91 92 93 93 92 91 92 92 93 94 94 93 93 93 93 94 94 95 95 97 100 102 104 107 110 112 115 119 122 124 127 130 135 136 136 138 138 139 143 143
87 88 88 89 90 90 90 89 89 89 89 90 91 92 92 93 93 93 94 93 94 94 95 96 97 98 100 104 107 110 111 113 116 119 120 122 124 128 131 133 134 135 137
Wind_Direction
245 247 247 247 247 249 250 251 251 249 249 249 250 251 252 252 253 253 254 254 255 255 256 256 256 256 257 258 260 260 260 260 260 259 259 259 259 261 262 263 263 263 263
245 246 248 249 250 251 251 252 252 253 253 253 253 253 253 253 253 254 255 255 255 254 252 252 254 256 259 260 261 262 262 262 263 263 263 261 262 262 263 263 265 267 267
248 249 250 250 252 252 253 253 254 255 255 255 255 256 256 255 255 256 256 256 256 255 255 255 254 256 258 260 260 261 261 262 262 263 264 263 263 264 264 264 264 266 267
249 248 249 250 251 253 255 256 257 257 257 257 256 256 256 257 257 257 258 258 257 257 257 258 258 258 259 259 260 260 260 261 260 261 261 263 262 262 263 263 264 265 266
252 253 253 253 254 254 255 254 255 256 257 258 258 259 259 258 258 258 259 258 259 259 258 258 259 260 260 260 261 261 261 261 261 261 261 261 260 260 261 263 263 263 265
255 255 255 255 256 256 256 256 257 257 257 257 257 258 259 259 260 260 260 260 260 260 260 260 260 260 260 261 261 262 262 262 261 262 262 261 262 263 263 262 262 263 264
257 259 260 259 259 259 259 258 258 259 259 258 257 257 257 258 258 258 259 260 260 261 260 260 260 260 261 261 262 262 262 263 263 263 263 264 263 263 264 264 263 264 264
258 258 259 260 261 262 263 263 263 263 263 262 261 260 259 259 259 259 258 258 259 259 260 260 261 261 261 261 261 262 262 262 263 263 263 263 264 263 263 264 264 264 264
260 261 262 263 263 264 264 265 265 265 265 265 265 265 264 263 263 263 262 262 262 262 262 261 261 260 261 261 262 262 262 263 263 263 263 263 264 264 263 263 263 263 264
260 260 260 261 262 263 263 264 264 264 265 265 265 265 265 265 264 263 263 262 262 262 262 262 263 263 263 263 263 263 263 263 264 263 264 263 263 263 263 263 264 264 265
260 261 261 262 262 262 263 263 263 263 264 265 266 266 266 265 265 264 263 263 262 262 262 262 262 262 262 262 263 263 263 263 264 264 264 264 264 264 264 264 264 265 265
260 260 260 261 261 262 263 264 264 264 264 264 265 265 266 266 266 265 264 263 262 262 262 262 262 262 261 261 262 262 262 263 263 263 264 264 264 264 264 264 265 265 265
262 262 262 262 262 262 263 263 264 264 265 265 265 265 265 264 264 264 265 265 265 264 262 261 261 261 261 261 261 261 261 261 261 261 262 262 263 263 264 264 264 265 266
265 265 264 264 264 264 264 265 265 265 266 266 266 267 266 266 266 265 264 263 263 263 263 263 263 262 263 262 262 262 261 261 261 261 262 262 262 262 263 263 264 264 265
267 268 268 268 267 267 267 267 267 267 266 265 265 264 264 264 264 264 265 265 264 263 262 261 262 262 261 262 262 262 262 262 262 262 262 262 262 262 263 263 263 264 264
270 270 270 269 269 268 268 267 266 266 265 265 264 263 263 263 263 262 262 262 263 263 263 263 262 261 260 260 260 261 261 261 261 261 262 262 262 262 262 262 263 263 263
271 271 271 270 269 268 267 267 266 266 265 265 264 264 264 263 263 262 262 261 260 260 261 261 262 262 262 261 261 260 260 260 260 260 260 261 262 262 262 263 263 263 263
272 271 271 271 270 270 269 269 268 267 266 265 264 263 262 262 261 261 261 261 261 261 260 260 260 260 260 261 261 260 260 259 259 259 259 259 260 261 262 262 263 262 263
272 272 272 272 271 270 270 270 269 267 267 266 266 265 264 263 263 262 261 260 260 260 260 259 259 259 259 259 259 260 260 260 259 259 258 259 259 260 260 261 262 262 262
276 276 275 274 272 271 270 270 269 268 268 267 267 266 265 264 263 262 261 260 259 258 259 258 258 257 257 258 258 259 258 258 258 259 259 258 259 259 260 260 261 261 262
277 276 276 275 275 274 274 273 273 272 271 271 269 268 267 265 264 263 262 260 259 258 257 256 257 257 256 256 257 257 257 256 256 257 258 258 257 258 259 259 260 261 262
278 277 277 277 276 276 275 275 274 274 273 271 270 269 268 267 265 264 263 262 261 260 258 257 256 256 255 255 256 256 256 256 256 255 256 257 257 257 257 258 259 260 261
278 278 278 278 277 277 275 274 273 273 272 271 270 269 267 266 265 263 263 262 262 261 259 258 258 256 255 255 255 255 255 256 256 256 255 256 255 255 256 257 258 258 259
280 279 278 278 277 276 276 275 275 273 272 271 270 269 268 267 266 264 263 261 260 259 258 258 258 257 257 256 255 254 255 255 255 255 255 255 256 255 255 255 257 258 258
280 280 279 279 278 277 276 275 274 273 273 272 271 270 269 268 267 266 264 263 261 260 259 258 256 256 256 256 255 255 254 254 255 255 255 255 256 256 256 256 256 257 257
283 282 281 280 279 278 277 277 276 274 272 271 270 269 268 268 267 266 265 263 262 261 260 259 258 257 256 255 255 255 255 254 254 254 254 254 255 255 256 257 257 257 258